#timestamp,LO_Frequency,Hit 
1501959615.7,286046999.3,N
1501959635.5,286046999.3,N
1501959655.4,286046999.0,N
1501959675.2,286046998.4,N
1501959695.0,286046999.6,N
1501959695.9,286046999.6,N
1501959715.7,286046999.4,N
1501959735.6,286046998.3,N
1501959755.4,286047000.1,N
1501959775.2,286047000.2,N
1501959795.1,286046998.7,N
1501959796.0,286046998.7,N
1501959815.8,286046999.0,N
1501959835.6,286046999.4,N
1501959855.5,286046999.4,N
1501959875.3,286047002.3,N
1501959895.1,286047002.0,N
1501959915.9,286047002.3,N
1501959935.7,286046998.1,N
1501959955.5,286047000.3,N
1501959975.4,286047002.4,N
1501959995.2,286047000.4,N
1501960015.0,286046998.8,N
1501960015.9,286046998.8,N
1501960035.7,286046996.5,N
1501960055.6,286046996.6,N
1501960075.4,286046996.5,N
1501960095.2,286046997.7,N
1501960115.1,286046999.5,N
1501960116.0,286046999.5,N
1501960135.8,286046995.2,P
1501960155.7,286046997.5,N
1501960175.5,286046998.2,N
1501960195.3,286046998.5,N
1501960215.1,286047000.1,N
1501960235.9,286047000.1,N
1501960255.7,286046998.7,N
1501960275.5,286047000.7,N
1501960295.4,286047000.8,N
1501960315.2,286046998.1,N
1501960335.0,286047001.0,N
1501960335.9,286047001.0,N
1501960355.8,286046999.8,N
1501960375.6,286047002.2,N
1501960395.4,286047002.7,N
1501960415.3,286047002.7,N
1501960435.1,286047001.7,N
1501960436.0,286047001.7,N
1501960455.8,286047001.9,N
1501960475.7,286047001.3,N
1501960495.5,286047003.9,N
1501960515.3,286047003.7,N
1501960535.1,286047004.2,N
1501960555.9,286047002.0,N
1501960575.7,286047002.2,N
1501960595.5,286047002.2,N
1501960615.4,286047001.3,N
1501960635.2,286047001.4,N
1501960655.0,286047002.2,N
1501960655.9,286047002.2,N
1501960675.8,286047001.5,N
1501960695.6,286047003.8,N
1501960715.4,286047003.2,N
1501960735.3,286047003.5,N
1501960755.1,286047001.4,N
1501960756.0,286047001.4,N
1501960775.8,286047001.5,N
1501960795.7,286047001.8,N
1501960815.5,286047003.7,N
1501960835.3,286047001.3,N
1501960855.2,286047004.3,P
1501960875.9,286047000.0,N
1501960895.7,286047001.0,N
1501960915.6,286047000.8,N
1501960935.4,286047000.5,N
1501960955.2,286047001.1,N
1501960975.0,286047000.0,N
1501960976.0,286047000.0,N
1501960995.8,286047000.5,N
1501961015.6,286046998.2,N
1501961035.4,286046998.8,N
1501961055.3,286046998.3,N
1501961075.1,286046999.6,N
1501961095.8,286046999.4,N
1501961115.7,286046998.2,N
1501961135.5,286046998.6,N
1501961155.3,286047000.7,N
1501961175.2,286047002.0,N
1501961195.9,286047004.1,N
1501961215.7,286047001.9,N
1501961235.6,286047001.9,N
1501961255.4,286047004.3,N
1501961275.2,286047000.0,N
1501961295.1,286047001.7,N
1501961296.0,286047001.7,N
1501961315.8,286047005.4,P
1501961335.6,286047003.2,N
1501961355.5,286047003.3,N
1501961375.3,286047005.3,P
1501961395.1,286047003.8,P
1501961415.9,286047004.2,P
1501961435.7,286047004.8,P
1501961455.5,286047001.8,P
1501961475.4,286047007.5,P
1501961495.2,286047006.4,P
1501961515.0,286047006.5,P
1501961516.0,286047006.5,P
1501961535.8,286047008.8,P
1501961555.6,286047005.1,P
1501961575.5,286047006.1,P
1501961595.3,286047008.2,P
1501961615.1,286047006.0,P
1501961635.9,286047005.6,P
1501961655.7,286047008.7,P
1501961675.5,286047008.5,P
1501961695.4,286047009.6,P
1501961715.2,286047008.9,P
1501961735.0,286047000.3,N
1501961735.9,286047000.3,N
1501961755.8,286046998.7,N
1501961775.6,286046998.1,N
1501961795.4,286046999.8,N
1501961815.3,286047005.7,N
1501961835.1,286047008.7,N
1501961836.0,286047008.7,N
1501961855.8,286047007.2,N
1501961875.7,286047009.6,N
1501961895.5,286047012.3,N
1501961915.3,286047009.6,N
1501961935.2,286047013.5,N
1501961955.9,286047014.8,N
1501961975.7,286047014.8,N
1501961995.6,286047018.2,P
1501962015.4,286047010.8,N
1501962035.2,286047010.5,N
1501962055.1,286047007.9,N
1501962056.0,286047007.9,N
1501962075.8,286047009.5,N
1501962095.6,286047008.3,N
1501962115.5,286047010.0,N
1501962135.3,286047015.5,P
1501962155.1,286047005.6,N
1501962175.9,286047003.6,N
1501962195.7,286047005.4,N
1501962215.5,286047006.7,N
1501962235.4,286047010.0,N
1501962255.2,286047010.6,N
1501962275.0,286047012.2,P
1501962275.9,286047012.2,P
1501962295.8,286047000.4,N
1501962315.6,286047001.7,N
1501962335.4,286047001.9,N
1501962355.3,286047003.5,N
1501962375.1,286047004.1,N
1501962376.0,286047004.1,N
1501962395.8,286047004.7,N
1501962415.6,286047006.8,N
1501962435.5,286047004.7,N
1501962455.3,286047004.5,N
1501962475.1,286047003.4,N
1501962495.9,286047002.9,N
1501962515.7,286047005.7,N
1501962535.5,286047003.1,N
1501962555.4,286047002.2,N
1501962575.2,286047007.6,N
1501962595.0,286047004.7,N
1501962595.9,286047004.7,N
1501962615.8,286047003.2,N
1501962635.6,286047003.9,N
1501962655.4,286047007.6,N
1501962675.2,286047006.1,N
1501962695.1,286047006.1,N
1501962696.0,286047006.1,N
1501962715.8,286047008.3,N
1501962735.7,286047010.8,P
1501962755.5,286047004.8,N
1501962775.6,286047004.7,N
1501962795.4,286047004.6,N
1501962815.2,286047005.2,N
1501962835.0,286047004.7,N
1501962835.9,286047004.7,N
1501962855.8,286047007.4,P
1501962875.6,286047000.5,N
1501962895.5,286047001.7,N
1501962915.3,286047003.4,N
1501962935.1,286047003.5,N
1501962955.8,286047001.0,N
1501962975.7,286047002.7,N
1501962995.5,286046999.9,N
1501963015.3,286047000.7,N
1501963035.2,286047000.3,N
1501963055.9,286046998.5,N
1501963075.7,286046998.3,N
1501963095.6,286046996.9,N
1501963115.4,286046996.6,N
1501963135.2,286046997.8,N
1501963155.1,286046993.6,N
1501963156.0,286046993.6,N
1501963175.8,286046990.8,N
1501963195.6,286046991.0,N
